| time (UTC) | temp F | wind direction | speed MPH | gust MPH | rain 1hr in | rain 24hr in | rain mn in | humidity % | barometer mb |
| 20260510074555 | 50 | 0 | 0.0 | 0.0 | 0.00 | 0.00 | 0.00 | 46 | 1018.3 |
| 20260510074048 | 50 | 0 | 0.0 | 0.0 | 0.00 | 0.00 | 0.00 | 44 | 1018.3 |
| 20260510073545 | 50 | 0 | 0.0 | 0.0 | 0.00 | 0.00 | 0.00 | 45 | 1018.3 |
| 20260510073056 | 50 | 0 | 0.0 | 0.0 | 0.00 | 0.00 | 0.00 | 46 | 1018.4 |
| 20260510072548 | 50 | 0 | 0.0 | 0.0 | 0.00 | 0.00 | 0.00 | 46 | 1018.5 |
| 20260510072046 | 50 | 0 | 0.0 | 0.0 | 0.00 | 0.00 | 0.00 | 46 | 1018.5 |
| 20260510071556 | 50 | 0 | 0.0 | 0.0 | 0.00 | 0.00 | 0.00 | 48 | 1018.5 |
| 20260510071048 | 51 | 0 | 0.0 | 0.0 | 0.00 | 0.00 | 0.00 | 47 | 1018.5 |
| 20260510070548 | 51 | 0 | 0.0 | 0.0 | 0.00 | 0.00 | 0.00 | 49 | 1018.5 |
| 20260510070055 | 51 | 0 | 0.0 | 0.0 | 0.00 | 0.00 | 0.00 | 46 | 1018.5 |
| 20260510065550 | 51 | 0 | 0.0 | 0.0 | 0.00 | 0.00 | 0.00 | 44 | 1018.6 |
| 20260510065046 | 51 | 0 | 0.0 | 0.0 | 0.00 | 0.00 | 0.00 | 45 | 1018.6 |
| 20260510064552 | 51 | 0 | 0.0 | 0.0 | 0.00 | 0.00 | 0.00 | 49 | 1018.6 |
| 20260510064047 | 51 | 0 | 0.0 | 0.0 | 0.00 | 0.00 | 0.00 | 51 | 1018.6 |
| 20260510063547 | 51 | 0 | 0.0 | 0.0 | 0.00 | 0.00 | 0.00 | 51 | 1018.6 |
| 20260510063050 | 51 | 0 | 0.0 | 0.0 | 0.00 | 0.00 | 0.00 | 50 | 1018.6 |
| 20260510062552 | 51 | 0 | 0.0 | 1.0 | 0.00 | 0.00 | 0.00 | 47 | 1018.6 |
| 20260510062049 | 51 | 0 | 0.0 | 1.0 | 0.00 | 0.00 | 0.00 | 47 | 1018.6 |
| 20260510061603 | 51 | 0 | 0.0 | 1.0 | 0.00 | 0.00 | 0.00 | 52 | 1018.5 |
| 20260510061048 | 51 | 0 | 0.0 | 1.0 | 0.00 | 0.00 | 0.00 | 50 | 1018.5 |
| 20260510060548 | 51 | 0 | 0.0 | 0.0 | 0.00 | 0.00 | 0.00 | 49 | 1018.5 |
| 20260510060055 | 51 | 0 | 0.0 | 0.0 | 0.00 | 0.00 | 0.00 | 40 | 1018.5 |
| 20260510055548 | 51 | 0 | 0.0 | 0.0 | 0.00 | 0.00 | 0.00 | 44 | 1018.5 |
| 20260510055047 | 52 | 0 | 0.0 | 1.0 | 0.00 | 0.00 | 0.00 | 45 | 1018.6 |
| 20260510054552 | 52 | 0 | 0.0 | 1.0 | 0.00 | 0.00 | 0.00 | 49 | 1018.5 |
| 20260510054046 | 52 | 0 | 0.0 | 2.0 | 0.00 | 0.00 | 0.00 | 51 | 1018.6 |
| 20260510053545 | 52 | 0 | 0.0 | 2.0 | 0.00 | 0.00 | 0.00 | 49 | 1018.6 |
| 20260510053057 | 52 | 259 | 0.0 | 1.0 | 0.00 | 0.00 | 0.00 | 54 | 1018.6 |
| 20260510052547 | 53 | 0 | 0.0 | 0.0 | 0.00 | 0.00 | 0.00 | 49 | 1018.5 |
| 20260510052047 | 53 | 0 | 0.0 | 0.0 | 0.00 | 0.00 | 0.00 | 55 | 1018.7 |
| 20260510051550 | 53 | 0 | 0.0 | 0.0 | 0.00 | 0.00 | 0.00 | 57 | 1018.8 |
| 20260510051049 | 53 | 0 | 0.0 | 0.0 | 0.00 | 0.00 | 0.00 | 61 | 1018.8 |
| 20260510050548 | 54 | 0 | 0.0 | 0.0 | 0.00 | 0.00 | 0.00 | 63 | 1018.8 |
| 20260510050053 | 54 | 0 | 0.0 | 0.0 | 0.00 | 0.00 | 0.00 | 65 | 1018.8 |
| 20260510045545 | 54 | 0 | 0.0 | 0.0 | 0.00 | 0.00 | 0.00 | 67 | 1018.8 |
| 20260510045049 | 54 | 0 | 0.0 | 0.0 | 0.00 | 0.00 | 0.00 | 67 | 1018.8 |
| 20260510044555 | 54 | 0 | 0.0 | 0.0 | 0.00 | 0.00 | 0.00 | 68 | 1018.7 |
| 20260510044045 | 54 | 0 | 0.0 | 0.0 | 0.00 | 0.00 | 0.00 | 68 | 1018.7 |
| 20260510043549 | 54 | 0 | 0.0 | 0.0 | 0.00 | 0.00 | 0.00 | 66 | 1018.6 |
| 20260510043055 | 54 | 0 | 0.0 | 0.0 | 0.00 | 0.00 | 0.00 | 66 | 1018.5 |
| 20260510042548 | 54 | 0 | 0.0 | 0.0 | 0.00 | 0.00 | 0.00 | 65 | 1018.5 |
| 20260510042052 | 54 | 0 | 0.0 | 0.0 | 0.00 | 0.00 | 0.00 | 66 | 1018.4 |
| 20260510041554 | 54 | 0 | 0.0 | 0.0 | 0.00 | 0.00 | 0.00 | 66 | 1018.4 |
| 20260510041045 | 54 | 0 | 0.0 | 0.0 | 0.00 | 0.00 | 0.00 | 65 | 1018.3 |
| 20260510040545 | 54 | 0 | 0.0 | 0.0 | 0.00 | 0.00 | 0.00 | 65 | 1018.3 |
| 20260510035547 | 54 | 0 | 0.0 | 0.0 | 0.00 | 0.00 | 0.00 | 64 | 1018.2 |
| 20260510035047 | 54 | 0 | 0.0 | 1.0 | 0.00 | 0.00 | 0.00 | 63 | 1018.2 |
| 20260510034558 | 54 | 0 | 0.0 | 1.0 | 0.00 | 0.00 | 0.00 | 64 | 1018.1 |
| 20260510034047 | 54 | 0 | 0.0 | 0.0 | 0.00 | 0.00 | 0.00 | 62 | 1018.0 |
| 20260510033548 | 54 | 0 | 0.0 | 0.0 | 0.00 | 0.00 | 0.00 | 64 | 1017.9 |
| 20260510033052 | 54 | 0 | 0.0 | 1.0 | 0.00 | 0.00 | 0.00 | 63 | 1017.9 |
| 20260510032547 | 55 | 0 | 0.0 | 1.0 | 0.00 | 0.00 | 0.00 | 63 | 1017.8 |
| 20260510032047 | 55 | 0 | 0.0 | 1.0 | 0.00 | 0.00 | 0.00 | 65 | 1017.8 |
| 20260510031601 | 55 | 0 | 0.0 | 1.0 | 0.00 | 0.00 | 0.00 | 63 | 1017.8 |
| 20260510031048 | 55 | 0 | 0.0 | 1.0 | 0.00 | 0.00 | 0.00 | 62 | 1017.8 |
| 20260510030546 | 56 | 0 | 0.0 | 1.0 | 0.00 | 0.00 | 0.00 | 63 | 1017.8 |
| 20260510030058 | 56 | 0 | 0.0 | 1.0 | 0.00 | 0.00 | 0.00 | 64 | 1017.7 |
| 20260510025548 | 57 | 0 | 0.0 | 0.0 | 0.00 | 0.00 | 0.00 | 64 | 1017.8 |
| 20260510025048 | 58 | 0 | 0.0 | 0.0 | 0.00 | 0.00 | 0.00 | 68 | 1017.7 |
| 20260510024557 | 58 | 0 | 0.0 | 0.0 | 0.00 | 0.00 | 0.00 | 76 | 1017.7 |
| 20260510024048 | 59 | 0 | 0.0 | 0.0 | 0.00 | 0.00 | 0.00 | 75 | 1017.7 |
| 20260510023544 | 59 | 0 | 0.0 | 0.0 | 0.00 | 0.00 | 0.00 | 75 | 1017.7 |
| 20260510023049 | 60 | 0 | 0.0 | 0.0 | 0.00 | 0.00 | 0.00 | 74 | 1017.7 |
| 20260510022547 | 60 | 0 | 0.0 | 0.0 | 0.00 | 0.00 | 0.00 | 73 | 1017.8 |
| 20260510022047 | 60 | 0 | 0.0 | 0.0 | 0.00 | 0.00 | 0.00 | 72 | 1017.7 |
| 20260510021557 | 61 | 0 | 0.0 | 0.0 | 0.00 | 0.00 | 0.00 | 72 | 1017.8 |
| 20260510021046 | 62 | 0 | 0.0 | 1.0 | 0.00 | 0.00 | 0.00 | 71 | 1017.7 |
| 20260510020547 | 62 | 0 | 0.0 | 1.0 | 0.00 | 0.00 | 0.00 | 70 | 1017.7 |
| 20260510020157 | 63 | 0 | 0.0 | 2.0 | 0.00 | 0.00 | 0.00 | 68 | 1017.7 |
| 20260510015547 | 63 | 0 | 0.0 | 2.0 | 0.00 | 0.00 | 0.00 | 67 | 1017.7 |
| 20260510015048 | 64 | 259 | 0.0 | 2.0 | 0.00 | 0.00 | 0.00 | 66 | 1017.6 |
| 20260510014559 | 65 | 0 | 1.0 | 2.0 | 0.00 | 0.00 | 0.00 | 65 | 1017.6 |
| 20260510014048 | 65 | 259 | 0.0 | 2.0 | 0.00 | 0.00 | 0.00 | 64 | 1017.7 |
| 20260510013548 | 66 | 259 | 0.0 | 3.0 | 0.00 | 0.00 | 0.00 | 62 | 1017.7 |
| 20260510013110 | 67 | 0 | 0.0 | 3.0 | 0.00 | 0.00 | 0.00 | 61 | 1017.7 |
| 20260510012548 | 67 | 172 | 0.0 | 3.0 | 0.00 | 0.00 | 0.00 | 60 | 1017.7 |
| 20260510012047 | 68 | 0 | 1.0 | 3.0 | 0.00 | 0.00 | 0.00 | 59 | 1017.7 |
| 20260510011552 | 68 | 0 | 0.0 | 3.0 | 0.00 | 0.00 | 0.00 | 60 | 1017.8 |
| 20260510011045 | 69 | 0 | 0.0 | 3.0 | 0.00 | 0.00 | 0.00 | 58 | 1017.8 |
| 20260510010544 | 69 | 0 | 0.0 | 3.0 | 0.00 | 0.00 | 0.00 | 57 | 1017.8 |
| 20260510010050 | 69 | 185 | 0.0 | 3.0 | 0.00 | 0.00 | 0.00 | 57 | 1017.8 |
| 20260510005545 | 70 | 0 | 0.0 | 3.0 | 0.00 | 0.00 | 0.00 | 55 | 1017.8 |
| 20260510005045 | 70 | 30 | 1.0 | 5.0 | 0.00 | 0.00 | 0.00 | 55 | 1017.7 |
| 20260510004555 | 70 | 180 | 0.0 | 6.0 | 0.00 | 0.00 | 0.00 | 54 | 1017.7 |
| 20260510004044 | 71 | 0 | 0.0 | 7.0 | 0.00 | 0.00 | 0.00 | 53 | 1017.7 |
| 20260510003545 | 71 | 0 | 2.0 | 7.0 | 0.00 | 0.00 | 0.00 | 53 | 1017.8 |
| 20260510003051 | 72 | 252 | 1.0 | 7.0 | 0.00 | 0.00 | 0.00 | 52 | 1017.7 |
| 20260510002550 | 73 | 146 | 1.0 | 7.0 | 0.00 | 0.00 | 0.00 | 51 | 1017.7 |
| 20260510002045 | 73 | 228 | 2.0 | 7.0 | 0.00 | 0.00 | 0.00 | 50 | 1017.7 |
| 20260510001555 | 74 | 0 | 0.0 | 4.0 | 0.00 | 0.00 | 0.00 | 49 | 1017.7 |
| 20260510001134 | 74 | 209 | 0.0 | 4.0 | 0.00 | 0.00 | 0.00 | 49 | 1017.7 |
| 20260510001045 | 74 | 209 | 0.0 | 4.0 | 0.00 | 0.00 | 0.00 | 49 | 1017.7 |
| 20260510000547 | 74 | 151 | 1.0 | 8.0 | 0.00 | 0.00 | 0.00 | 49 | 1017.7 |
| 20260510000052 | 74 | 300 | 3.0 | 8.0 | 0.00 | 0.00 | 0.00 | 47 | 1017.7 |
| 20260509235550 | 74 | 184 | 1.0 | 4.0 | 0.00 | 0.00 | 0.00 | 47 | 1017.7 |
| 20260509235045 | 75 | 145 | 1.0 | 5.0 | 0.00 | 0.00 | 0.00 | 47 | 1017.7 |
| 20260509234551 | 75 | 170 | 2.0 | 9.0 | 0.00 | 0.00 | 0.00 | 46 | 1017.7 |
| 20260509234045 | 75 | 198 | 1.0 | 10.0 | 0.00 | 0.00 | 0.00 | 46 | 1017.6 |
| 20260509233547 | 75 | 232 | 2.0 | 10.0 | 0.00 | 0.00 | 0.00 | 47 | 1017.6 |
| 20260509233058 | 75 | 0 | 1.0 | 7.0 | 0.00 | 0.00 | 0.00 | 46 | 1017.7 |
| 20260509232548 | 76 | 153 | 2.0 | 8.0 | 0.00 | 0.00 | 0.00 | 46 | 1017.7 |
| 20260509232045 | 76 | 194 | 1.0 | 8.0 | 0.00 | 0.00 | 0.00 | 45 | 1017.7 |
| 20260509231557 | 76 | 217 | 1.0 | 7.0 | 0.00 | 0.00 | 0.00 | 47 | 1017.8 |
| 20260509231044 | 76 | 196 | 2.0 | 6.0 | 0.00 | 0.00 | 0.00 | 46 | 1017.8 |
| 20260509230544 | 76 | 112 | 1.0 | 5.0 | 0.00 | 0.00 | 0.00 | 44 | 1017.7 |
| 20260509230048 | 76 | 136 | 1.0 | 4.0 | 0.00 | 0.00 | 0.00 | 45 | 1017.7 |
| 20260509225547 | 77 | 117 | 2.0 | 7.0 | 0.00 | 0.00 | 0.00 | 45 | 1017.8 |
| 20260509225044 | 77 | 128 | 1.0 | 7.0 | 0.00 | 0.00 | 0.00 | 42 | 1017.9 |
| 20260509224620 | 77 | 188 | 3.0 | 7.0 | 0.00 | 0.00 | 0.00 | 41 | 1017.9 |
| 20260509224049 | 77 | 246 | 1.0 | 7.0 | 0.00 | 0.00 | 0.00 | 43 | 1017.9 |
| 20260509223548 | 77 | 122 | 2.0 | 8.0 | 0.00 | 0.00 | 0.00 | 43 | 1018.0 |
| 20260509223059 | 77 | 115 | 3.0 | 9.0 | 0.00 | 0.00 | 0.00 | 43 | 1018.0 |
| 20260509222548 | 77 | 110 | 2.0 | 10.0 | 0.00 | 0.00 | 0.00 | 42 | 1018.1 |
| 20260509222048 | 77 | 0 | 3.0 | 10.0 | 0.00 | 0.00 | 0.00 | 38 | 1018.1 |
| 20260509221559 | 78 | 154 | 2.0 | 8.0 | 0.00 | 0.00 | 0.00 | 37 | 1018.2 |
| 20260509221047 | 78 | 132 | 1.0 | 7.0 | 0.00 | 0.00 | 0.00 | 39 | 1018.2 |
| 20260509220546 | 78 | 215 | 2.0 | 8.0 | 0.00 | 0.00 | 0.00 | 37 | 1018.3 |
| 20260509220056 | 78 | 197 | 2.0 | 8.0 | 0.00 | 0.00 | 0.00 | 38 | 1018.4 |
| 20260509215547 | 78 | 104 | 1.0 | 6.0 | 0.00 | 0.00 | 0.00 | 40 | 1018.4 |
| 20260509215045 | 78 | 162 | 2.0 | 7.0 | 0.00 | 0.00 | 0.00 | 40 | 1018.5 |
| 20260509214555 | 78 | 125 | 1.0 | 10.0 | 0.00 | 0.00 | 0.00 | 38 | 1018.5 |
| 20260509214047 | 78 | 148 | 2.0 | 10.0 | 0.00 | 0.00 | 0.00 | 36 | 1018.6 |
| 20260509213547 | 78 | 202 | 4.0 | 10.0 | 0.00 | 0.00 | 0.00 | 37 | 1018.5 |
| 20260509213052 | 78 | 273 | 1.0 | 5.0 | 0.00 | 0.00 | 0.00 | 39 | 1018.5 |
| 20260509212548 | 78 | 181 | 1.0 | 5.0 | 0.00 | 0.00 | 0.00 | 38 | 1018.5 |
| 20260509212047 | 78 | 137 | 1.0 | 6.0 | 0.00 | 0.00 | 0.00 | 36 | 1018.6 |
| 20260509211551 | 78 | 138 | 2.0 | 6.0 | 0.00 | 0.00 | 0.00 | 33 | 1018.6 |
| 20260509211047 | 78 | 218 | 2.0 | 6.0 | 0.00 | 0.00 | 0.00 | 32 | 1018.7 |
| 20260509210544 | 78 | 140 | 1.0 | 5.0 | 0.00 | 0.00 | 0.00 | 32 | 1018.7 |
| 20260509210105 | 78 | 228 | 1.0 | 6.0 | 0.00 | 0.00 | 0.00 | 30 | 1018.7 |
| 20260509205548 | 78 | 113 | 2.0 | 11.0 | 0.00 | 0.00 | 0.00 | 30 | 1018.8 |
| 20260509205047 | 78 | 171 | 2.0 | 11.0 | 0.00 | 0.00 | 0.00 | 34 | 1019.0 |
| 20260509204559 | 78 | 189 | 2.0 | 11.0 | 0.00 | 0.00 | 0.00 | 34 | 1019.0 |
| 20260509204047 | 78 | 213 | 2.0 | 8.0 | 0.00 | 0.00 | 0.00 | 37 | 1019.0 |
| 20260509203548 | 78 | 261 | 2.0 | 8.0 | 0.00 | 0.00 | 0.00 | 34 | 1019.0 |
| 20260509203050 | 78 | 211 | 1.0 | 7.0 | 0.00 | 0.00 | 0.00 | 36 | 1019.0 |
| 20260509202545 | 78 | 207 | 1.0 | 8.0 | 0.00 | 0.00 | 0.00 | 33 | 1019.0 |
| 20260509202050 | 78 | 125 | 2.0 | 8.0 | 0.00 | 0.00 | 0.00 | 35 | 1019.0 |
| 20260509201549 | 78 | 211 | 3.0 | 8.0 | 0.00 | 0.00 | 0.00 | 31 | 1018.9 |
| 20260509201047 | 78 | 205 | 2.0 | 4.0 | 0.00 | 0.00 | 0.00 | 33 | 1018.8 |
| 20260509200547 | 77 | 153 | 1.0 | 5.0 | 0.00 | 0.00 | 0.00 | 31 | 1019.0 |
| 20260509200106 | 77 | 132 | 1.0 | 7.0 | 0.00 | 0.00 | 0.00 | 30 | 1019.0 |
| 20260509195550 | 77 | 252 | 3.0 | 7.0 | 0.00 | 0.00 | 0.00 | 26 | 1019.0 |
| 20260509195047 | 77 | 184 | 2.0 | 7.0 | 0.00 | 0.00 | 0.00 | 30 | 1019.0 |
| 20260509194552 | 77 | 0 | 1.0 | 8.0 | 0.00 | 0.00 | 0.00 | 33 | 1019.0 |
| 20260509194048 | 77 | 235 | 2.0 | 8.0 | 0.00 | 0.00 | 0.00 | 31 | 1019.1 |
| 20260509193547 | 77 | 204 | 1.0 | 6.0 | 0.00 | 0.00 | 0.00 | 30 | 1019.1 |
| 20260509193051 | 77 | 127 | 2.0 | 5.0 | 0.00 | 0.00 | 0.00 | 34 | 1019.0 |
| 20260509192549 | 77 | 229 | 1.0 | 7.0 | 0.00 | 0.00 | 0.00 | 32 | 1019.0 |
| 20260509192048 | 76 | 200 | 1.0 | 7.0 | 0.00 | 0.00 | 0.00 | 35 | 1019.0 |
| 20260509191549 | 76 | 137 | 1.0 | 5.0 | 0.00 | 0.00 | 0.00 | 32 | 1019.0 |
| 20260509191048 | 76 | 250 | 1.0 | 6.0 | 0.00 | 0.00 | 0.00 | 35 | 1019.1 |
| 20260509190545 | 76 | 162 | 2.0 | 10.0 | 0.00 | 0.00 | 0.00 | 38 | 1019.0 |
| 20260509190057 | 76 | 0 | 1.0 | 10.0 | 0.00 | 0.00 | 0.00 | 36 | 1019.0 |
| 20260509185545 | 76 | 202 | 1.0 | 7.0 | 0.00 | 0.00 | 0.00 | 37 | 1019.1 |
| 20260509185045 | 75 | 252 | 1.0 | 6.0 | 0.00 | 0.00 | 0.00 | 40 | 1019.1 |
| 20260509184631 | 75 | 122 | 2.0 | 6.0 | 0.00 | 0.00 | 0.00 | 37 | 1019.2 |
| 20260509184047 | 75 | 139 | 1.0 | 5.0 | 0.00 | 0.00 | 0.00 | 40 | 1019.2 |
| 20260509183544 | 75 | 150 | 1.0 | 7.0 | 0.00 | 0.00 | 0.00 | 36 | 1019.2 |
| 20260509183106 | 75 | 148 | 1.0 | 7.0 | 0.00 | 0.00 | 0.00 | 37 | 1019.2 |
| 20260509182545 | 75 | 164 | 1.0 | 6.0 | 0.00 | 0.00 | 0.00 | 39 | 1019.2 |
| 20260509182044 | 75 | 0 | 1.0 | 4.0 | 0.00 | 0.00 | 0.00 | 38 | 1019.2 |
| 20260509181553 | 74 | 0 | 0.0 | 5.0 | 0.00 | 0.00 | 0.00 | 37 | 1019.2 |
| 20260509181046 | 74 | 136 | 1.0 | 5.0 | 0.00 | 0.00 | 0.00 | 37 | 1019.2 |
| 20260509180545 | 74 | 175 | 1.0 | 5.0 | 0.00 | 0.00 | 0.00 | 38 | 1019.2 |
| 20260509180111 | 74 | 175 | 2.0 | 5.0 | 0.00 | 0.00 | 0.00 | 35 | 1019.2 |
| 20260509175548 | 74 | 196 | 2.0 | 5.0 | 0.00 | 0.00 | 0.00 | 35 | 1019.2 |
| 20260509175048 | 74 | 0 | 1.0 | 4.0 | 0.00 | 0.00 | 0.00 | 35 | 1019.2 |
| 20260509174553 | 73 | 180 | 0.0 | 4.0 | 0.00 | 0.00 | 0.00 | 39 | 1019.2 |
| 20260509174045 | 73 | 0 | 1.0 | 4.0 | 0.00 | 0.00 | 0.00 | 38 | 1019.2 |
| 20260509173547 | 73 | 0 | 1.0 | 4.0 | 0.00 | 0.00 | 0.00 | 39 | 1019.1 |
| 20260509173051 | 73 | 213 | 0.0 | 4.0 | 0.00 | 0.00 | 0.00 | 36 | 1019.2 |
| 20260509172550 | 73 | 233 | 0.0 | 4.0 | 0.00 | 0.00 | 0.00 | 36 | 1019.2 |
| 20260509172046 | 72 | 0 | 0.0 | 2.0 | 0.00 | 0.00 | 0.00 | 37 | 1019.1 |
| 20260509171556 | 72 | 190 | 0.0 | 2.0 | 0.00 | 0.00 | 0.00 | 39 | 1019.2 |
| 20260509171047 | 72 | 0 | 0.0 | 2.0 | 0.00 | 0.00 | 0.00 | 38 | 1019.1 |
| 20260509170546 | 71 | 161 | 0.0 | 6.0 | 0.00 | 0.00 | 0.00 | 40 | 1019.1 |
| 20260509170059 | 71 | 0 | 1.0 | 6.0 | 0.00 | 0.00 | 0.00 | 40 | 1019.1 |
| 20260509165547 | 70 | 213 | 0.0 | 2.0 | 0.00 | 0.00 | 0.00 | 42 | 1019.0 |
| 20260509165044 | 69 | 0 | 0.0 | 2.0 | 0.00 | 0.00 | 0.00 | 44 | 1019.1 |
| 20260509164550 | 69 | 0 | 0.0 | 3.0 | 0.00 | 0.00 | 0.00 | 45 | 1019.1 |
| 20260509164048 | 68 | 55 | 1.0 | 3.0 | 0.00 | 0.00 | 0.00 | 48 | 1019.1 |
| 20260509163548 | 68 | 63 | 1.0 | 3.0 | 0.00 | 0.00 | 0.00 | 49 | 1019.1 |
| 20260509163110 | 67 | 0 | 0.0 | 3.0 | 0.00 | 0.00 | 0.00 | 49 | 1019.0 |
| 20260509162547 | 66 | 49 | 0.0 | 3.0 | 0.00 | 0.00 | 0.00 | 51 | 1019.0 |
| 20260509162047 | 65 | 0 | 0.0 | 2.0 | 0.00 | 0.00 | 0.00 | 48 | 1019.0 |
| 20260509161552 | 64 | 0 | 0.0 | 1.0 | 0.00 | 0.00 | 0.00 | 54 | 1019.0 |
| 20260509161046 | 63 | 0 | 0.0 | 2.0 | 0.00 | 0.00 | 0.00 | 53 | 1018.9 |
| 20260509160548 | 62 | 40 | 0.0 | 3.0 | 0.00 | 0.00 | 0.00 | 56 | 1018.9 |
| 20260509160052 | 61 | 40 | 0.0 | 3.0 | 0.00 | 0.00 | 0.00 | 55 | 1018.9 |
| 20260509155548 | 60 | 0 | 1.0 | 3.0 | 0.00 | 0.00 | 0.00 | 55 | 1018.8 |
| 20260509155047 | 59 | 0 | 0.0 | 2.0 | 0.00 | 0.00 | 0.00 | 56 | 1018.8 |
| 20260509154551 | 58 | 40 | 0.0 | 2.0 | 0.00 | 0.00 | 0.00 | 54 | 1018.8 |
| 20260509154048 | 57 | 0 | 0.0 | 2.0 | 0.00 | 0.00 | 0.00 | 56 | 1018.8 |
| 20260509153544 | 56 | 40 | 1.0 | 2.0 | 0.00 | 0.00 | 0.00 | 56 | 1018.8 |
| 20260509153055 | 55 | 49 | 0.0 | 2.0 | 0.00 | 0.00 | 0.00 | 56 | 1018.8 |
| 20260509152548 | 55 | 57 | 0.0 | 2.0 | 0.00 | 0.00 | 0.00 | 58 | 1018.8 |
| 20260509152047 | 54 | 57 | 0.0 | 2.0 | 0.00 | 0.00 | 0.00 | 56 | 1018.8 |
| 20260509151558 | 54 | 0 | 0.0 | 2.0 | 0.00 | 0.00 | 0.00 | 57 | 1018.8 |
| 20260509151044 | 53 | 0 | 1.0 | 3.0 | 0.00 | 0.00 | 0.00 | 56 | 1018.8 |
| 20260509150548 | 52 | 56 | 1.0 | 3.0 | 0.00 | 0.00 | 0.00 | 55 | 1018.8 |
| 20260509150055 | 52 | 50 | 1.0 | 3.0 | 0.00 | 0.00 | 0.00 | 56 | 1018.8 |
| 20260509145548 | 51 | 33 | 0.0 | 2.0 | 0.00 | 0.00 | 0.00 | 57 | 1018.8 |
| 20260509145047 | 50 | 20 | 0.0 | 2.0 | 0.00 | 0.00 | 0.00 | 62 | 1018.8 |
| 20260509144557 | 50 | 0 | 0.0 | 1.0 | 0.00 | 0.00 | 0.00 | 69 | 1018.8 |
| 20260509144048 | 50 | 0 | 0.0 | 0.0 | 0.00 | 0.00 | 0.00 | 69 | 1018.8 |
| 20260509143548 | 49 | 0 | 0.0 | 0.0 | 0.00 | 0.00 | 0.00 | 73 | 1018.8 |
| 20260509143055 | 49 | 0 | 0.0 | 1.0 | 0.00 | 0.00 | 0.00 | 74 | 1018.7 |
| 20260509142544 | 49 | 0 | 0.0 | 1.0 | 0.00 | 0.00 | 0.00 | 75 | 1018.7 |
| 20260509142047 | 49 | 0 | 0.0 | 1.0 | 0.00 | 0.00 | 0.00 | 74 | 1018.7 |
| 20260509141602 | 48 | 20 | 0.0 | 1.0 | 0.00 | 0.00 | 0.00 | 74 | 1018.6 |
| 20260509141050 | 48 | 0 | 0.0 | 1.0 | 0.00 | 0.00 | 0.00 | 74 | 1018.6 |
| 20260509140548 | 48 | 0 | 0.0 | 0.0 | 0.00 | 0.00 | 0.00 | 71 | 1018.5 |
| 20260509135548 | 48 | 0 | 0.0 | 0.0 | 0.00 | 0.00 | 0.00 | 70 | 1018.5 |
| 20260509135048 | 47 | 0 | 0.0 | 0.0 | 0.00 | 0.00 | 0.00 | 69 | 1018.5 |
| 20260509134551 | 47 | 0 | 0.0 | 0.0 | 0.00 | 0.00 | 0.00 | 67 | 1018.5 |
| 20260509134047 | 47 | 0 | 0.0 | 0.0 | 0.00 | 0.00 | 0.00 | 67 | 1018.5 |
| 20260509133550 | 47 | 0 | 0.0 | 0.0 | 0.00 | 0.00 | 0.00 | 62 | 1018.4 |
| 20260509133053 | 47 | 0 | 0.0 | 0.0 | 0.00 | 0.00 | 0.00 | 65 | 1018.4 |
| 20260509132545 | 47 | 0 | 0.0 | 0.0 | 0.00 | 0.00 | 0.00 | 64 | 1018.3 |
| 20260509132044 | 47 | 0 | 0.0 | 0.0 | 0.00 | 0.00 | 0.00 | 65 | 1018.3 |
| 20260509131551 | 47 | 0 | 0.0 | 0.0 | 0.00 | 0.00 | 0.00 | 64 | 1018.2 |
| 20260509131048 | 47 | 0 | 0.0 | 0.0 | 0.00 | 0.00 | 0.00 | 64 | 1018.2 |
| 20260509130549 | 47 | 0 | 0.0 | 0.0 | 0.00 | 0.00 | 0.00 | 65 | 1018.2 |
| 20260509130054 | 47 | 0 | 0.0 | 0.0 | 0.00 | 0.00 | 0.00 | 62 | 1018.2 |
| 20260509125546 | 47 | 0 | 0.0 | 0.0 | 0.00 | 0.00 | 0.00 | 61 | 1018.2 |
| 20260509125048 | 47 | 0 | 0.0 | 0.0 | 0.00 | 0.00 | 0.00 | 62 | 1018.2 |
| 20260509124558 | 47 | 0 | 0.0 | 0.0 | 0.00 | 0.00 | 0.00 | 61 | 1018.2 |
| 20260509124047 | 47 | 0 | 0.0 | 0.0 | 0.00 | 0.00 | 0.00 | 59 | 1018.2 |
| 20260509123547 | 47 | 0 | 0.0 | 0.0 | 0.00 | 0.00 | 0.00 | 61 | 1018.0 |
| 20260509123057 | 47 | 0 | 0.0 | 0.0 | 0.00 | 0.00 | 0.00 | 62 | 1018.0 |
| 20260509122546 | 48 | 0 | 0.0 | 0.0 | 0.00 | 0.00 | 0.00 | 62 | 1017.9 |
| 20260509122047 | 48 | 0 | 0.0 | 0.0 | 0.00 | 0.00 | 0.00 | 61 | 1017.9 |
| 20260509121551 | 48 | 0 | 0.0 | 0.0 | 0.00 | 0.00 | 0.00 | 60 | 1017.9 |
| 20260509121050 | 48 | 0 | 0.0 | 0.0 | 0.00 | 0.00 | 0.00 | 59 | 1017.9 |
| 20260509120548 | 48 | 0 | 0.0 | 0.0 | 0.00 | 0.00 | 0.00 | 57 | 1018.0 |
| 20260509120056 | 48 | 0 | 0.0 | 0.0 | 0.00 | 0.00 | 0.00 | 55 | 1017.9 |
| 20260509115548 | 48 | 0 | 0.0 | 0.0 | 0.00 | 0.00 | 0.00 | 55 | 1017.9 |
| 20260509115047 | 48 | 0 | 0.0 | 0.0 | 0.00 | 0.00 | 0.00 | 53 | 1018.0 |
| 20260509114605 | 48 | 0 | 0.0 | 0.0 | 0.00 | 0.00 | 0.00 | 52 | 1018.0 |
| 20260509114047 | 48 | 0 | 0.0 | 0.0 | 0.00 | 0.00 | 0.00 | 53 | 1018.0 |
| 20260509113548 | 48 | 0 | 0.0 | 0.0 | 0.00 | 0.00 | 0.00 | 56 | 1018.0 |
| 20260509113113 | 48 | 0 | 0.0 | 0.0 | 0.00 | 0.00 | 0.00 | 57 | 1018.1 |
| 20260509112546 | 48 | 0 | 0.0 | 0.0 | 0.00 | 0.00 | 0.00 | 58 | 1018.1 |
| 20260509112048 | 48 | 0 | 0.0 | 0.0 | 0.00 | 0.00 | 0.00 | 55 | 1018.0 |
| 20260509111555 | 48 | 0 | 0.0 | 0.0 | 0.00 | 0.00 | 0.00 | 57 | 1018.0 |
| 20260509111047 | 48 | 0 | 0.0 | 0.0 | 0.00 | 0.00 | 0.00 | 57 | 1018.0 |
| 20260509110548 | 48 | 0 | 0.0 | 0.0 | 0.00 | 0.00 | 0.00 | 57 | 1018.1 |
| 20260509110053 | 48 | 0 | 0.0 | 0.0 | 0.00 | 0.00 | 0.00 | 58 | 1018.2 |
| 20260509105547 | 48 | 0 | 0.0 | 0.0 | 0.00 | 0.00 | 0.00 | 59 | 1018.2 |
| 20260509105047 | 48 | 0 | 0.0 | 0.0 | 0.00 | 0.00 | 0.00 | 58 | 1018.2 |
| 20260509104558 | 48 | 0 | 0.0 | 0.0 | 0.00 | 0.00 | 0.00 | 58 | 1018.3 |
| 20260509104049 | 48 | 0 | 0.0 | 0.0 | 0.00 | 0.00 | 0.00 | 58 | 1018.3 |
| 20260509103548 | 48 | 0 | 0.0 | 0.0 | 0.00 | 0.00 | 0.00 | 62 | 1018.3 |
| 20260509103059 | 48 | 0 | 0.0 | 0.0 | 0.00 | 0.00 | 0.00 | 60 | 1018.3 |
| 20260509102547 | 48 | 0 | 0.0 | 0.0 | 0.00 | 0.00 | 0.00 | 58 | 1018.4 |
| 20260509102047 | 48 | 0 | 0.0 | 0.0 | 0.00 | 0.00 | 0.00 | 59 | 1018.4 |
| 20260509101553 | 48 | 0 | 0.0 | 0.0 | 0.00 | 0.00 | 0.00 | 58 | 1018.4 |
| 20260509101046 | 48 | 0 | 0.0 | 0.0 | 0.00 | 0.00 | 0.00 | 58 | 1018.4 |
| 20260509100546 | 48 | 0 | 0.0 | 0.0 | 0.00 | 0.00 | 0.00 | 58 | 1018.4 |
| 20260509100109 | 48 | 0 | 0.0 | 0.0 | 0.00 | 0.00 | 0.00 | 58 | 1018.3 |
| 20260509095547 | 48 | 0 | 0.0 | 0.0 | 0.00 | 0.00 | 0.00 | 57 | 1018.4 |
| 20260509095049 | 48 | 0 | 0.0 | 0.0 | 0.00 | 0.00 | 0.00 | 57 | 1018.4 |
| 20260509094555 | 48 | 0 | 0.0 | 0.0 | 0.00 | 0.00 | 0.00 | 59 | 1018.4 |
| 20260509094047 | 48 | 0 | 0.0 | 0.0 | 0.00 | 0.00 | 0.00 | 61 | 1018.5 |
| 20260509093547 | 48 | 0 | 0.0 | 0.0 | 0.00 | 0.00 | 0.00 | 61 | 1018.5 |
| 20260509093108 | 48 | 0 | 0.0 | 0.0 | 0.00 | 0.00 | 0.00 | 60 | 1018.5 |
| 20260509092552 | 48 | 0 | 0.0 | 0.0 | 0.00 | 0.00 | 0.00 | 67 | 1018.5 |
| 20260509092048 | 49 | 0 | 0.0 | 0.0 | 0.00 | 0.00 | 0.00 | 69 | 1018.5 |
| 20260509091606 | 49 | 0 | 0.0 | 0.0 | 0.00 | 0.00 | 0.00 | 68 | 1018.5 |
| 20260509091048 | 49 | 0 | 0.0 | 0.0 | 0.00 | 0.00 | 0.00 | 67 | 1018.5 |
| 20260509090547 | 49 | 0 | 0.0 | 0.0 | 0.00 | 0.00 | 0.00 | 69 | 1018.7 |
| 20260509090053 | 49 | 0 | 0.0 | 0.0 | 0.00 | 0.00 | 0.00 | 66 | 1018.7 |
| 20260509085542 | 49 | 0 | 0.0 | 0.0 | 0.00 | 0.00 | 0.00 | 65 | 1018.7 |
| 20260509085051 | 49 | 0 | 0.0 | 0.0 | 0.00 | 0.00 | 0.00 | 64 | 1018.8 |
| 20260509084552 | 49 | 0 | 0.0 | 0.0 | 0.00 | 0.00 | 0.00 | 65 | 1018.9 |
| 20260509084047 | 49 | 0 | 0.0 | 0.0 | 0.00 | 0.00 | 0.00 | 65 | 1019.0 |
| 20260509083546 | 49 | 0 | 0.0 | 0.0 | 0.00 | 0.00 | 0.00 | 65 | 1019.0 |
| 20260509083050 | 49 | 0 | 0.0 | 0.0 | 0.00 | 0.00 | 0.00 | 67 | 1018.9 |
| 20260509082547 | 49 | 0 | 0.0 | 0.0 | 0.00 | 0.00 | 0.00 | 65 | 1018.9 |
| 20260509082047 | 49 | 0 | 0.0 | 0.0 | 0.00 | 0.00 | 0.00 | 68 | 1018.9 |
| 20260509081601 | 49 | 0 | 0.0 | 0.0 | 0.00 | 0.00 | 0.00 | 67 | 1018.9 |
| 20260509081048 | 49 | 0 | 0.0 | 0.0 | 0.00 | 0.00 | 0.00 | 68 | 1019.0 |
| 20260509080547 | 50 | 0 | 0.0 | 0.0 | 0.00 | 0.00 | 0.00 | 67 | 1019.1 |
| 20260509080058 | 50 | 0 | 0.0 | 0.0 | 0.00 | 0.00 | 0.00 | 66 | 1019.2 |
| 20260509075548 | 50 | 0 | 0.0 | 0.0 | 0.00 | 0.00 | 0.00 | 65 | 1019.1 |
| 20260509075048 | 50 | 0 | 0.0 | 0.0 | 0.00 | 0.00 | 0.00 | 68 | 1019.3 |